Weather in Hyderabad

Pakistan     25˚24′41″N   68˚20′34″E
temp.,
°C
wind,
m/s
gust,
m/s
humid.,
%
clouds,
%
prec.,
mm/h
press.,
hPa
HPBL,
m
29 november, sun
sun2923:00+19˚nne34240 0.0 101823
02:00+17˚nne34270 0.0 101723
05:00+17˚nne34270 0.0 101723
08:00+18˚nne34240 0.0 101938
11:00+26˚ne34140 0.0 1019532
14:00+29˚ne2390 0.0 10151081
17:00+25˚nne11120 0.0 101524
20:00+19˚ne12170 0.0 101623
30 november, mon
mon3023:00+17˚ne12180 0.0 101623
02:00+16˚nne11190 0.0 101523
05:00+15˚ne11200 0.0 101423
08:00+18˚e11160 0.0 101623
11:00+28˚ene1190 0.0 1017447
14:00+31˚se1170 0.0 10141107
17:00+26˚s23100 0.0 101324
20:00+20˚wsw12140 0.0 101524
1 december, tue
tue123:00+19˚nne01150 0.0 101624
02:00+18˚sse00160 0.0 101523
05:00+18˚nnw12160 0.0 101423
08:00+21˚nne23120 0.0 101723
11:00+29˚ne2380 0.0 1017473
14:00+32˚ne2270 0.0 10141226
17:00+29˚nnw23100 0.0 101424
20:00+25˚n34140 0.0 101624
2 december, wed
wed223:00+22˚ne23110 0.0 101623
02:00+21˚nne23110 0.0 101523
05:00+21˚nne34110 0.0 101523
08:00+22˚n34110 0.0 101730
11:00+29˚nne3470 0.0 1017447
14:00+32˚n1290 0.0 10131159
17:00+28˚n12150 0.0 101224
20:00+23˚ene11210 0.0 101324
3 december, thu
thu323:00+20˚e11240 0.0 101324
02:00+19˚ese11250 0.0 101224
05:00+19˚s12280 0.0 101223
08:00+23˚sw23340 0.0 101323
11:00+31˚sw35160 0.0 1014712
14:00+34˚wsw4590 0.0 10111622
17:00+31˚wsw45110 0.0 101032
20:00+25˚wsw56210 0.0 101141